[[{"header":{"parameterUnit":"m.s-1","parameterCategory":1,"la1":30.2991,"la2":30.254,"lo1":-89.0895,"lo2":-89.0444,"dy":0.0017,"dx":0.0017,"nx":28,"ny":28,"refTime":"2024-07-17T03:00:00:Z","depth":0,"parameterNumber":2,"parameterNumberName":"U-component_of_WINDS"},"data":[0,0,0,0,0,0,0,0,0,0,0,0,0,0,0,0,0,0,0,0,0,0,0,0,0,0,0,0,0,0,0,0,0,0,0,0,0,0,0,0,0,0,0,0,0,0,0,0,0,0,0,0,0,0,0,0,0,0,2.7254,2.7255,0,2.7348,2.7349,2.735,2.7318,2.7316,2.7314,2.7312,2.7409,2.7413,2.7417,0,0,0,0,0,0,0,0,0,0,0,0,0,2.7045,2.7049,2.7254,2.7255,2.7257,2.7348,2.7349,2.7351,2.7318,2.7316,2.7313,2.7311,2.7407,2.7412,2.7418,0,0,0,0,0,0,0,0,0,0,0,0,0,2.7137,2.7051,2.7254,2.7251,2.7252,2.7348,2.7349,2.7351,2.7319,2.7316,2.7313,2.731,2.7405,2.7412,2.7418,2.7522,0,0,2.7439,2.7442,0,0,0,0,0,0,0,0,2.7132,2.7145,2.7251,2.7252,2.7253,2.7318,2.7311,2.7408,2.732,2.7294,2.7312,2.7308,2.7381,2.739,2.7414,2.7527,2.7531,2.744,2.7444,2.7447,2.7449,0,0,0,0,0,0,0,2.7126,2.7141,2.7291,2.7252,2.7254,2.7245,2.7255,2.7329,2.7354,2.7296,2.7293,2.7305,2.7381,2.7408,2.7416,2.7532,2.744,2.7446,2.745,2.7452,2.7732,2.7735,0,0,0,0,0,0,2.7119,2.7136,2.7288,2.7294,2.7184,2.7251,2.7262,2.73,2.7353,2.7358,2.7308,2.7303,2.7398,2.7408,2.7419,2.7542,2.7447,2.7453,2.7457,2.7729,2.7733,2.7736,0,0,0,0,0,0,2.7115,2.7133,2.7285,2.7214,2.7233,2.7258,2.7301,2.7304,2.733,2.7362,2.7366,2.733,2.7396,2.741,2.7496,2.7545,2.7456,2.7462,2.7725,2.773,2.7735,2.7789,0,0,0,0,0,0,2.7109,2.7132,2.7172,2.7216,2.7237,2.736,2.7305,2.7308,2.7342,2.7337,2.7384,2.7389,2.7394,2.7486,2.7503,2.7552,2.7467,2.772,2.7727,2.7733,2.7783,2.7795,2.7806,0,0,0,0,0,2.7101,2.7184,2.7174,2.7192,2.7288,2.7363,2.7376,2.738,2.7346,2.7386,2.7406,2.7387,2.7537,2.7495,2.7514,2.7566,2.7717,2.7725,2.7733,2.7778,2.7793,2.7806,0,0,0,0,0,0,2.7146,2.719,2.7179,2.7278,2.7317,2.7358,2.7408,2.7396,2.7445,2.7439,2.7442,2.7453,2.7541,2.7563,2.7515,2.7668,2.7622,2.7634,2.765,2.7665,2.7676,2.7668,2.7473,0,0,0,0,0,2.7167,2.7225,2.726,2.7345,2.7365,2.7383,2.7417,2.7416,2.7457,2.7473,2.7499,2.7539,2.7595,2.7631,2.7685,2.7787,2.7795,2.7832,2.7843,2.7852,2.7862,2.7914,2.793,2.7761,2.7761,2.7761,0,0,2.7212,2.7243,2.7279,2.7354,2.7384,2.7443,2.7397,2.7463,2.7506,2.7483,2.7565,2.7586,2.7631,2.7724,2.7767,2.7745,2.791,2.7862,2.7869,2.7873,2.7924,2.7939,2.7954,2.7767,2.7766,2.7765,0,0,2.7322,2.7353,2.7425,2.7456,2.7502,2.7513,2.753,2.7573,2.7585,2.7668,2.7651,2.7703,2.78,2.7831,2.786,2.7981,2.7965,2.7998,2.8057,2.8109,2.8122,2.8134,2.8174,2.8189,2.8008,2.8008,2.8008,0,2.7372,2.746,2.7464,2.7529,2.7562,2.7543,2.7615,2.7645,2.7706,2.7729,2.7703,2.7822,2.7851,2.7951,2.798,2.8005,2.8023,2.7992,2.812,2.8132,2.8143,2.8181,2.8197,2.8012,2.8011,2.8011,2.8011,0,2.7517,2.7579,2.7632,2.769,2.7728,2.7797,2.781,2.7849,2.7845,2.7859,2.7942,2.7976,2.8034,2.8059,2.8056,2.8157,2.8142,2.8119,2.8072,2.8162,2.8198,2.8213,2.8017,2.8016,2.8014,2.8014,0,0,2.7658,2.7716,2.7735,2.776,2.7809,2.7856,2.7923,2.798,2.8012,2.8055,2.811,2.8191,2.8169,2.8201,2.8203,2.8248,2.8338,2.8219,2.8219,2.8237,2.8448,2.8463,2.8481,2.8328,2.8331,2.8334,2.8443,0,2.7771,2.7888,2.7892,2.7999,2.8054,2.8037,2.8095,2.8131,2.8146,2.8195,2.8211,2.8267,2.8236,2.8254,2.8299,2.8318,2.838,2.831,2.8378,2.838,2.8364,2.85,2.8517,2.8619,2.8458,2.846,2.8462,0,2.7918,2.7963,2.8075,2.8113,2.8137,2.8189,2.824,2.8287,2.8327,2.8334,2.837,2.8364,2.8431,2.8384,2.8476,2.8428,2.8457,2.847,2.8474,2.8478,2.8425,2.8505,2.8652,2.8666,2.8485,2.8483,2.8481,0,2.8005,2.8095,2.8173,2.8195,2.8243,2.8279,2.8301,2.8337,2.837,2.8415,2.8436,2.8489,2.8517,2.8557,2.8565,2.853,2.8656,2.861,2.8662,2.8662,2.8688,2.8686,2.8838,2.8711,2.871,2.871,2.871,0,2.8129,2.8197,2.8212,2.826,2.8336,2.834,2.8414,2.8433,2.8466,2.8516,2.8505,2.8552,2.8561,2.861,2.8617,2.869,2.8704,2.8711,2.8711,2.871,2.8709,2.8727,2.8719,2.8714,2.8713,2.8713,2.8712,0,2.8238,2.8252,2.8335,2.8373,2.8384,2.8437,2.8469,2.8514,2.8528,2.8591,2.8606,2.8627,2.8684,2.8696,2.8765,2.8769,2.8855,2.885,2.8841,2.884,2.889,2.8884,2.9057,2.9079,2.894,2.8941,2.8943,0,2.8315,2.8367,2.841,2.8442,2.8465,2.8518,2.8551,2.8557,2.8592,2.864,2.8679,2.8734,2.8779,2.887,2.8891,2.8943,2.8937,2.8994,2.8945,2.8941,2.8934,2.893,2.8934,2.9003,2.9004,2.9006,2.9007,0,2.8448,2.8452,2.85,2.855,2.8589,2.8629,2.8667,2.8695,2.8706,2.8745,2.8803,2.8837,2.8905,2.896,2.9011,2.9033,2.9021,2.9022,2.9036,2.9034,2.9026,2.9028,2.8864,2.9018,2.9017,2.9016,2.9015,2.9015,2.8542,2.8586,2.8622,2.8676,2.8705,2.874,2.8783,2.8801,2.8849,2.8904,2.8906,2.8968,2.9004,2.9071,2.9096,2.9144,2.9126,2.9148,2.9153,2.9157,2.916,2.902,2.9154,2.9154,2.9154,2.9153,2.9153,0,2.8672,2.8694,2.8743,2.8796,2.8837,2.8823,2.8864,2.8899,2.8953,2.8989,2.9032,2.9097,2.915,2.9174,2.9226,2.926,2.9255,2.9273,2.9269,2.9274,2.9175,2.9156,2.9275,2.9275,2.9275,2.9275,2.9275,2.9275,2.8745,2.8818,2.8825,2.8912,2.8934,2.8994,2.9018,2.905,2.9077,2.915,2.9193,2.9209,2.924,2.9293,2.934,2.9346,2.9364,2.9384,2.9387,2.9294,2.9281,2.9269,2.9251,2.9388,2.9388,2.9481,2.9482,2.9482]},{"header":{"parameterUnit":"m.s-1","parameterCategory":1,"la1":30.2991,"la2":30.254,"lo1":-89.0895,"lo2":-89.0444,"dy":0.0017,"dx":0.0017,"nx":28,"ny":28,"refTime":"2024-07-17T03:00:00:Z","depth":0,"parameterNumber":3,"parameterNumberName":"V-component_of_WINDS"},"data":[0,0,0,0,0,0,0,0,0,0,0,0,0,0,0,0,0,0,0,0,0,0,0,0,0,0,0,0,0,0,0,0,0,0,0,0,0,0,0,0,0,0,0,0,0,0,0,0,0,0,0,0,0,0,0,0,0,0,1.4112,1.4112,0,1.4108,1.4108,1.4108,1.4049,1.4047,1.4045,1.4044,1.4041,1.4043,1.4044,0,0,0,0,0,0,0,0,0,0,0,0,0,1.407,1.4071,1.4112,1.4112,1.4112,1.4108,1.4108,1.4108,1.4049,1.4047,1.4045,1.4043,1.4041,1.4042,1.4044,0,0,0,0,0,0,0,0,0,0,0,0,0,1.4079,1.4071,1.4112,1.4082,1.4079,1.4108,1.4108,1.4108,1.4049,1.4047,1.4045,1.4043,1.404,1.4042,1.4044,1.4102,0,0,1.405,1.4051,0,0,0,0,0,0,0,0,1.4079,1.4081,1.4087,1.4084,1.4081,1.4076,1.4092,1.4106,1.405,1.4061,1.4044,1.4041,1.4055,1.4056,1.406,1.4102,1.4102,1.405,1.4052,1.4053,1.4053,0,0,0,0,0,0,0,1.4078,1.4081,1.4111,1.4087,1.4083,1.4069,1.4068,1.4094,1.4071,1.406,1.4055,1.4055,1.4053,1.4058,1.4059,1.4102,1.405,1.4052,1.4053,1.4054,1.419,1.4192,0,0,0,0,0,0,1.4082,1.4081,1.4111,1.411,1.4074,1.4072,1.407,1.408,1.407,1.4066,1.4057,1.4053,1.4056,1.4057,1.4059,1.4125,1.4053,1.4054,1.4056,1.4187,1.419,1.4193,0,0,0,0,0,0,1.4081,1.4085,1.4111,1.4094,1.4096,1.4075,1.4086,1.4081,1.4086,1.4068,1.4064,1.4067,1.4054,1.4056,1.4091,1.4124,1.4055,1.4057,1.4184,1.4188,1.4191,1.4258,0,0,0,0,0,0,1.408,1.4085,1.4107,1.4095,1.4098,1.4143,1.4088,1.4083,1.409,1.4084,1.4076,1.4073,1.4052,1.4089,1.4093,1.4126,1.4059,1.4181,1.4186,1.419,1.4253,1.4264,1.4273,0,0,0,0,0,1.4079,1.4126,1.4108,1.4112,1.4124,1.4145,1.4147,1.4122,1.4093,1.4114,1.4103,1.4073,1.412,1.4093,1.4097,1.4131,1.4179,1.4185,1.419,1.4249,1.4262,1.4273,0,0,0,0,0,0,1.4143,1.4124,1.4104,1.4149,1.4149,1.4135,1.4162,1.4137,1.4145,1.4139,1.4109,1.4107,1.4147,1.4143,1.4113,1.4186,1.4144,1.4151,1.4187,1.42,1.4209,1.421,1.406,0,0,0,0,0,1.4162,1.418,1.4163,1.4205,1.4206,1.4184,1.4192,1.4173,1.4172,1.4172,1.4163,1.4164,1.4178,1.4189,1.4201,1.4252,1.4249,1.4278,1.4287,1.4296,1.4302,1.4328,1.434,1.421,1.421,1.421,0,0,1.4202,1.4194,1.4208,1.4218,1.4215,1.4235,1.4184,1.4208,1.4222,1.4176,1.4208,1.4202,1.42,1.4243,1.4262,1.4241,1.4337,1.4303,1.4309,1.4311,1.4334,1.4347,1.4358,1.4214,1.4213,1.4213,0,0,1.4286,1.4282,1.4315,1.4314,1.4311,1.4296,1.4304,1.4294,1.4287,1.4319,1.4284,1.4301,1.4328,1.4328,1.4331,1.4414,1.4387,1.4419,1.4471,1.4496,1.4506,1.4515,1.4544,1.4555,1.4425,1.4425,1.4425,0,1.4336,1.4364,1.4336,1.4361,1.4367,1.4324,1.4358,1.4358,1.436,1.4365,1.4341,1.4372,1.4368,1.441,1.443,1.4435,1.4443,1.442,1.4507,1.4516,1.4524,1.4551,1.4562,1.4429,1.4428,1.4428,1.4428,0,1.4426,1.4447,1.4474,1.4476,1.4484,1.4514,1.449,1.4502,1.4481,1.4469,1.4502,1.4495,1.4506,1.4514,1.4495,1.4554,1.454,1.4513,1.447,1.454,1.4565,1.4576,1.4434,1.4433,1.4432,1.4431,0,0,1.4551,1.4535,1.4546,1.4546,1.4539,1.4554,1.4582,1.4591,1.4601,1.4604,1.4626,1.4649,1.4622,1.4627,1.4607,1.463,1.4695,1.4598,1.4598,1.4616,1.4758,1.4779,1.4792,1.4677,1.4679,1.468,1.4758,0,1.4631,1.4676,1.4651,1.47,1.4718,1.4678,1.4702,1.4701,1.4689,1.4703,1.4691,1.4707,1.4672,1.4674,1.4694,1.4683,1.4723,1.4677,1.4697,1.4698,1.4698,1.4805,1.4827,1.4901,1.4768,1.4769,1.4771,0,1.473,1.4736,1.4787,1.4775,1.4782,1.4804,1.481,1.4824,1.4821,1.4811,1.4816,1.479,1.4817,1.4775,1.481,1.4779,1.4786,1.4782,1.4784,1.4785,1.4739,1.4808,1.4924,1.4935,1.4786,1.4785,1.4784,0,1.4815,1.4835,1.4868,1.4869,1.4857,1.4873,1.4869,1.4864,1.4871,1.4877,1.4881,1.489,1.4895,1.4902,1.488,1.4852,1.4919,1.4875,1.4911,1.4912,1.4927,1.4927,1.5046,1.4932,1.4932,1.4932,1.4932,0,1.4906,1.4939,1.4906,1.4926,1.4961,1.4932,1.4968,1.4959,1.4955,1.4973,1.4939,1.4957,1.4927,1.4941,1.4924,1.4956,1.4959,1.4952,1.4947,1.4954,1.4955,1.4958,1.4953,1.4935,1.4934,1.4934,1.4933,0,1.5007,1.4986,1.5019,1.5005,1.5002,1.5028,1.5016,1.5034,1.502,1.5044,1.5047,1.5026,1.5042,1.502,1.5034,1.5022,1.5066,1.5053,1.5066,1.5063,1.51,1.5097,1.5225,1.524,1.5118,1.5119,1.512,0,1.5067,1.5091,1.5079,1.5088,1.5085,1.5101,1.5107,1.508,1.5088,1.5086,1.5105,1.5117,1.5125,1.5152,1.5138,1.5148,1.5135,1.518,1.5137,1.5143,1.5135,1.5134,1.5136,1.5188,1.519,1.5191,1.5192,0,1.5175,1.5163,1.5173,1.518,1.5189,1.5193,1.5195,1.5205,1.5175,1.5186,1.5201,1.5208,1.5221,1.5234,1.524,1.5236,1.5209,1.5206,1.5214,1.5223,1.5229,1.5226,1.509,1.5203,1.5202,1.5201,1.52,1.52,1.5256,1.5275,1.5269,1.5282,1.528,1.5283,1.5298,1.5287,1.5298,1.5306,1.5289,1.5309,1.5305,1.531,1.5309,1.5324,1.5304,1.5317,1.5321,1.5324,1.533,1.5227,1.5325,1.5325,1.5324,1.5324,1.5324,0,1.5362,1.5356,1.5368,1.5371,1.5381,1.5354,1.5355,1.5365,1.5382,1.538,1.5389,1.5406,1.5418,1.5405,1.5414,1.5428,1.5417,1.5432,1.543,1.543,1.5347,1.5338,1.5441,1.5441,1.5441,1.5441,1.5441,1.5441,1.5418,1.5448,1.5436,1.5465,1.5459,1.5477,1.5479,1.5481,1.548,1.55,1.5509,1.55,1.5494,1.5503,1.5513,1.5508,1.5513,1.5533,1.5525,1.5447,1.5436,1.5425,1.5416,1.5535,1.5535,1.5607,1.5607,1.5608]}]]